Flora, IL

11:03 PM CST on February 06, 2016 (GMT -0600)
Flora Municipal

Weather History for KFOA - September, 2012

Change the Weather History Date:

Monday, September 24, 2012

  Actual Average (KEVV) Record (KEVV)
Temperature  
Mean Temperature 54 °F 66 °F  
Max Temperature 71 °F 78 °F 94 °F (1961)
Min Temperature 37 °F 53 °F 34 °F (1983)
Degree Days  
Heating Degree Days 11 3  
Month to date heating degree days 23  
Since 1 July heating degree days 24  
Cooling Degree Days 0 3  
Month to date cooling degree days 150  
Year to date cooling degree days 1349  
Growing Degree Days 4 (Base 50)    
Moisture  
Dew Point 42 °F    
Average Humidity 62    
Maximum Humidity 100    
Minimum Humidity 29    
Precipitation  
Precipitation 0.00 in 0.10 in 2.23 in (1984)
Month to date precipitation 2.41  
Year to date precipitation 33.33  
Snow  
Snow 0.00 in 0.00 in 0.00 in (2002)
Month to date snowfall 0.0  
Since 1 July snowfall 0.0  
Since 1 September snowfall 0.0  
Snow Depth -    
Sea Level Pressure  
Sea Level Pressure 30.16 in    
Wind  
Wind Speed 4 mph (SSE)    
Max Wind Speed 14 mph    
Max Gust Speed 20 mph    
Visibility 10 miles    
Events      
T = Trace of Precipitation, MM = Missing Value Source: NWS Daily Summary

Daily Weather History Graph

Daily Weather History Graph

Search for Another Location

Airport or City:

Trip Planner

Search our weather history database for the weather conditions in past years. The results will help you decide how hot, cold, wet, or windy it might be!

Date:

Astronomy

Sep. 24, 2012 Rise Set
Actual Time 6:43 AM CDT 6:46 PM CDT
Civil Twilight 6:17 AM CDT 7:13 PM CDT
Nautical Twilight 5:46 AM CDT 7:44 PM CDT
Astronomical Twilight 5:14 AM CDT 8:15 PM CDT
Moon 3:29 PM CDT (9/24) 1:03 AM CDT (9/24)
Length of Visible Light 12h 56m
Length of Day
12h 03m
Waxing Gibbous, 71% of the Moon is Illuminated
Sep 24
Waxing Gibbous
Sep 29
Full
Oct 8
Last Quarter
Oct 15
New
Oct 21
First Quarter

Hourly Weather History & Observations

Time (CDT) Temp. Dew Point Humidity Pressure Visibility Wind Dir Wind Speed Gust Speed Precip Events Conditions
12:15 AM 47.1 °F 44.4 °F 90% 30.26 in 10.0 mi Calm Calm - N/A   Clear
12:35 AM 44.4 °F 41.7 °F 90% 30.27 in 10.0 mi Calm Calm - N/A   Clear
2:15 AM 42.8 °F 41.0 °F 93% 30.26 in 10.0 mi Calm Calm - N/A   Clear
2:35 AM 41.5 °F 40.8 °F 97% 30.26 in 10.0 mi Calm Calm - N/A   Clear
2:55 AM 39.7 °F 39.4 °F 99% 30.26 in 10.0 mi Calm Calm - N/A   Clear
3:15 AM 41.0 °F 41.0 °F 100% 30.25 in 10.0 mi Calm Calm - N/A   Clear
5:14 AM 39.2 °F 39.2 °F 100% 30.27 in 10.0 mi Calm Calm - N/A   Clear
5:34 AM 37.4 °F 37.4 °F 100% 30.27 in 10.0 mi Calm Calm - N/A   Clear
5:54 AM 37.4 °F 37.4 °F 100% 30.27 in 10.0 mi Calm Calm - N/A   Clear
6:14 AM 39.2 °F 39.2 °F 100% 30.27 in 10.0 mi Calm Calm - N/A   Clear
6:35 AM 37.0 °F 37.0 °F 100% 30.27 in 10.0 mi Calm Calm - N/A   Clear
7:14 AM 37.4 °F 37.4 °F 100% 30.28 in 10.0 mi Calm Calm - N/A   Clear
7:34 AM 39.2 °F 39.2 °F 100% 30.27 in 10.0 mi Calm Calm - N/A   Clear
7:54 AM 42.8 °F 42.8 °F 100% 30.27 in 10.0 mi Calm Calm - N/A   Clear
8:13 AM 46.4 °F 44.6 °F 93% 30.27 in 10.0 mi Calm Calm - N/A   Clear
8:15 AM 46.0 °F 45.3 °F 97% 30.27 in 10.0 mi Calm Calm - N/A   Clear
8:35 AM 49.5 °F 45.1 °F 85% 30.26 in 10.0 mi South 3.5 mph - N/A   Clear
8:53 AM 53.6 °F 46.4 °F 77% 30.26 in 10.0 mi Calm Calm - N/A   Clear
8:55 AM 52.7 °F 46.9 °F 81% 30.26 in 10.0 mi Calm Calm - N/A   Clear
9:15 AM 56.1 °F 46.4 °F 70% 30.26 in 10.0 mi SSW 4.6 mph - N/A   Clear
9:35 AM 58.1 °F 46.8 °F 66% 30.26 in 10.0 mi South 4.6 mph - N/A   Clear
9:55 AM 59.9 °F 46.6 °F 61% 30.25 in 10.0 mi South 5.8 mph - N/A   Clear
10:15 AM 62.8 °F 44.4 °F 51% 30.25 in 10.0 mi South 9.2 mph - N/A   Clear
10:35 AM 63.5 °F 41.4 °F 44% 30.25 in 10.0 mi SSE 9.2 mph - N/A   Clear
10:55 AM 64.6 °F 40.5 °F 41% 30.24 in 10.0 mi South 9.2 mph - N/A   Clear
11:15 AM 65.3 °F 36.3 °F 34% 30.24 in 10.0 mi SSE 8.1 mph - N/A   Clear
11:35 AM 65.8 °F 37.2 °F 35% 30.23 in 10.0 mi South 10.4 mph - N/A   Clear
11:55 AM 67.1 °F 38.7 °F 35% 30.22 in 10.0 mi South 8.1 mph - N/A   Clear
12:35 PM 67.8 °F 38.7 °F 34% 30.21 in 10.0 mi South 6.9 mph - N/A   Clear
12:55 PM 68.7 °F 38.5 °F 33% 30.20 in 10.0 mi South 6.9 mph - N/A   Clear
1:15 PM 68.9 °F 37.9 °F 32% 30.18 in 10.0 mi SSE 8.1 mph 11.5 mph N/A   Clear
1:35 PM 69.1 °F 37.0 °F 31% 30.17 in 10.0 mi South 10.4 mph - N/A   Clear
1:55 PM 69.4 °F 36.5 °F 30% 30.16 in 10.0 mi SSW 11.5 mph - N/A   Clear
2:15 PM 70.3 °F 37.0 °F 30% 30.15 in 10.0 mi South 9.2 mph - N/A   Clear
2:35 PM 70.7 °F 38.1 °F 30% 30.13 in 10.0 mi South 13.8 mph 17.3 mph N/A   Clear
2:55 PM 71.1 °F 37.8 °F 30% 30.12 in 10.0 mi South 10.4 mph - N/A   Clear
3:15 PM 71.6 °F 39.4 °F 31% 30.10 in 10.0 mi SSE 10.4 mph - N/A   Clear
3:35 PM 71.6 °F 38.5 °F 30% 30.09 in 10.0 mi SSE 12.7 mph - N/A   Clear
3:55 PM 71.6 °F 37.9 °F 29% 30.08 in 10.0 mi South 10.4 mph - N/A   Clear
4:15 PM 71.2 °F 37.9 °F 30% 30.06 in 10.0 mi SSE 10.4 mph 19.6 mph N/A   Clear
4:35 PM 70.7 °F 37.9 °F 30% 30.05 in 10.0 mi SSE 10.4 mph - N/A   Clear
4:55 PM 70.7 °F 39.6 °F 32% 30.05 in 10.0 mi SSE 10.4 mph - N/A   Clear
5:15 PM 70.0 °F 39.2 °F 33% 30.04 in 10.0 mi SSE 13.8 mph - N/A   Clear
5:35 PM 68.9 °F 40.1 °F 35% 30.03 in 10.0 mi SSE 9.2 mph - N/A   Clear
5:55 PM 68.4 °F 41.4 °F 37% 30.03 in 10.0 mi SSE 9.2 mph - N/A   Clear
6:15 PM 66.0 °F 42.8 °F 43% 30.03 in 10.0 mi SSE 8.1 mph - N/A   Clear
6:55 PM 61.7 °F 44.2 °F 53% 30.02 in 10.0 mi SSE 6.9 mph - N/A   Clear
7:15 PM 60.1 °F 45.7 °F 59% 30.02 in 10.0 mi SSE 5.8 mph - N/A   Clear
7:55 PM 59.7 °F 45.7 °F 60% 30.02 in 10.0 mi SSE 6.9 mph - N/A   Clear
8:15 PM 59.9 °F 46.9 °F 62% 30.03 in 10.0 mi SSE 4.6 mph - N/A   Mostly Cloudy
8:35 PM 61.7 °F 47.1 °F 59% 30.03 in 10.0 mi SSE 4.6 mph - N/A   Overcast
8:55 PM 62.1 °F 46.6 °F 57% 30.03 in 10.0 mi SSE 4.6 mph - N/A   Overcast
9:15 PM 62.1 °F 46.6 °F 57% 30.03 in 10.0 mi SSE 4.6 mph - N/A   Overcast
9:35 PM 59.7 °F 47.3 °F 63% 30.03 in 10.0 mi SE 4.6 mph - N/A   Scattered Clouds
9:55 PM 58.1 °F 47.3 °F 67% 30.03 in 10.0 mi SE 4.6 mph - N/A   Clear
10:15 PM 55.0 °F 48.2 °F 78% 30.03 in 10.0 mi SE 3.5 mph - N/A   Clear
10:35 PM 56.3 °F 47.1 °F 71% 30.03 in 10.0 mi ESE 3.5 mph - N/A   Clear
10:55 PM 54.7 °F 47.5 °F 77% 30.02 in 10.0 mi SE 4.6 mph - N/A   Clear
11:15 PM 53.4 °F 47.3 °F 80% 30.01 in 10.0 mi ESE 5.8 mph - N/A   Clear
11:55 PM 52.9 °F 47.5 °F 82% 30.00 in 10.0 mi SE 6.9 mph - N/A   Clear